Tracking 29892 objects as of 21-Nov-2024
HD Live streaming from Space Station
objects crossing your sky now

FENGYUN 1C DEB

Track FENGYUN 1C DEB now!
10-day predictions


NORAD ID: 32157
Int'l Code: 1999-025CTB
Perigee: 388.7 km
Apogee: 429.8 km
Inclination: 99.0 °
Period: 92.6 minutes
Semi major axis: 6780 km
RCS: 0.0022 m2 (small)
Launch date: May 10, 1999
Source: People's Republic of China (PRC)
Launch site: Taiyaun Space Center, China (TSC)

Note: This is SATELLITE DEBRIS
Your satellite tracking list
Your tracking list is empty




NASA's NSSDC Master Catalog

Two Line Element Set (TLE):
1 32157U 99025CTB 24325.08268938  .00365551  00000-0  51216-2 0  9995
2 32157  98.9905   1.8798 0030259 357.3969   2.7117 15.55015117931826
Source of the keplerian elements: AFSPC